Location: Earls Croome
(52.0667°N, 2.2000°W)
Time: 07:48:05
(UTC+00:00)

Cosmos 1315 Rocket - Pass Details

Date: 17 November 2019
Orbit: 530 x 568 km, 81.2° (Epoch: 05 December)

Event Time Altitude Azimuth Distance (km) Brightness Sun altitude
Rises 06:43:22 0° 346° (NNW) 2,715 6.0 -7.5°
Reaches altitude 10° 06:45:31 10° 346° (NNW) 1,823 5.1 -7.2°
Maximum altitude 06:49:32 82° 258° (WSW) 561 2.8 -6.6°
Drops below altitude 10° 06:53:35 10° 172° (S) 1,831 5.9 -6.1°
Sets 06:55:45 0° 171° (S) 2,727 6.9 -5.8°
